Terminal Aerodrome Forecast
Issued by NWS

Home | Current Version | Previous Version | Text Only | Print | Product List | Glossary On
Versions: 1 2 3 4 5 6 7 8 9 10 11 12 13 14 15 16 17 18 19 20 21 22
000
FTUS46 KPDT 012000 AAA
TAFYKM
TAF AMD
KYKM 012041Z 0121/0218 VRB03KT P6SM VCSH OVC015
     FM020200 30005KT P6SM SCT025 BKN200
     FM020600 30005KT P6SM SCT250
     FM021300 28003KT 6SM BR FEW005 OVC120=

USA.gov is the U.S. government's official web portal to all federal, state and local government web resources and services.